Regional Weather Roundup
Issued by NWS Charleston, WV

Home | Current Version | Previous Version | Graphics & Text | Print | Product List | Glossary On
Versions: 1 2 3 4 5 6 7 8 9 10 11 12 13 14 15 16 17 18 19 20 21 22 23 24 25 26 27
000
ASUS41 KRLX 220810
RWRRLX
West Virginia Regional Weather Roundup
National Weather Service Charleston WV
400 AM EDT THU JUN 22 2017

Note: "fair" indicates few or no clouds below 12,000 feet with no
significant weather and/or obstructions to visibility.

WVZ003-220900-
Northern Panhandle of West Virginia

CITY           SKY/WX    TMP DP  RH WIND       PRES   REMARKS
WHEELING       CLOUDY    66  63  90 CALM      30.00S
$$

WVZ009-220900-
Northwest West Virginia

CITY           SKY/WX    TMP DP  RH WIND       PRES   REMARKS
PARKERSBURG    CLOUDY    71  66  84 SW5       30.04R
$$

WVZ006-220900-
Western West Virginia

CITY           SKY/WX    TMP DP  RH WIND       PRES   REMARKS
HUNTINGTON     PTCLDY    72  64  76 S6        30.05R
$$

WVZ015-220900-
West Central West Virginia

CITY           SKY/WX    TMP DP  RH WIND       PRES   REMARKS
CHARLESTON     PTCLDY    69  64  84 CALM      30.06R
$$

WVZ022-031-220900-
North Central West Virginia

CITY           SKY/WX    TMP DP  RH WIND       PRES   REMARKS
CLARKSBURG     CLOUDY    71  64  78 S6        30.04R
MORGANTOWN     CLOUDY    71  63  75 S5        30.04R
$$

WVZ025-035-042-045-220900-
Southern West Virginia

CITY           SKY/WX    TMP DP  RH WIND       PRES   REMARKS
BECKLEY        CLOUDY    65  60  84 SW3       30.15R
LOGAN            N/A     70  64  83 CALM      30.10S
BLUEFIELD      CLOUDY    63  57  81 W6        30.18R
LEWISBURG      CLEAR     62  58  88 CALM      30.15R
$$

WVZ047-220900-
Northern Mountains of West Virginia

CITY           SKY/WX    TMP DP  RH WIND       PRES   REMARKS
ELKINS         CLOUDY    65  61  87 CALM      30.10S
$$

WVZ052-220900-
Eastern Panhandle of West Virginia

CITY           SKY/WX    TMP DP  RH WIND       PRES   REMARKS
MARTINSBURG    PTCLDY    65  63  93 SE3       29.99S
PETERSBURG     MOCLDY    66  64  92 E3        30.02F
$$




USA.gov is the U.S. government's official web portal to all federal, state and local government web resources and services.